Weather History for Walla Walla, WA

Change the Weather History Date:

Sunday, March 2, 2014

  Actual Average Record
Temperature  
Mean Temperature 26 °F -  
Max Temperature 30 °F 48 °F 65 °F (1975)
Min Temperature 24 °F 32 °F 9 °F (1989)
Degree Days  
Heating Degree Days 39    
Moisture  
Dew Point 23 °F    
Average Humidity 88    
Maximum Humidity 96    
Minimum Humidity 78    
Precipitation  
Precipitation 0.21 in - - ()
Sea Level Pressure  
Sea Level Pressure 29.89 in    
Wind  
Wind Speed 5 mph (SW)    
Max Wind Speed 9 mph    
Max Gust Speed -    
Visibility 5 miles    
Events Rain , Snow    
Averages and records for this station are not official NWS values.
T = Trace of Precipitation, MM = Missing Value Source: NWS Daily Summary

Daily Weather History Graph

Daily Weather History Graph

Search for Another Location

Airport:

Trip Planner

Search our weather history database for the weather conditions in past years. The results will help you decide how hot, cold, wet, or windy it might be!

Date:

Astronomy

Mar. 02, 2014 Rise Set
Actual Time 6:30 AM PST 5:41 PM PST
Civil Twilight 6:00 AM PST 6:11 PM PST
Nautical Twilight 5:25 AM PST 6:45 PM PST
Astronomical Twilight 4:50 AM PST 7:20 PM PST
Moon 6:57 AM PST (3/2) 7:51 PM PST (3/2)
Length of Visible Light 12h 11m
Length of Day
11h 11m
Waxing Crescent, 3% of the Moon is Illuminated
Mar 2
Waxing Crescent
Mar 8
First Quarter
Mar 16
Full
Mar 23
Last Quarter
Mar 30
New

Hourly Weather History & Observations

Time (PST) Temp. Windchill Dew Point Humidity Pressure Visibility Wind Dir Wind Speed Gust Speed Precip Events Conditions
12:19 AM 25.0 °F 16.3 °F 21.0 °F 85% 29.93 in 2.5 mi WSW 8.1 mph - 0.00 in Snow Light Snow
12:48 AM 24.8 °F 17.9 °F 21.2 °F 86% 29.94 in 6.0 mi South 5.8 mph - 0.00 in   Overcast
12:53 AM 25.0 °F 18.1 °F 21.0 °F 85% 29.99 in 9.0 mi South 5.8 mph - 0.00 in   Overcast
1:53 AM 24.1 °F 17.0 °F 19.9 °F 84% 29.98 in 2.0 mi SSE 5.8 mph - 0.00 in Snow Light Snow
2:00 AM 24.1 °F 16.0 °F 21.0 °F 88% 29.93 in 1.8 mi South 6.9 mph - 0.00 in Snow Light Snow
2:05 AM 24.1 °F 15.2 °F 21.0 °F 88% 29.93 in 3.0 mi South 8.1 mph - 0.00 in Snow Light Snow
2:53 AM 24.1 °F 16.0 °F 21.0 °F 88% 29.97 in 9.0 mi South 6.9 mph - 0.01 in   Overcast
3:53 AM 25.0 °F 19.3 °F 19.0 °F 78% 29.97 in 10.0 mi South 4.6 mph - N/A   Overcast
4:53 AM 24.1 °F 18.2 °F 19.0 °F 81% 29.97 in 10.0 mi South 4.6 mph - 0.00 in   Overcast
5:49 AM 24.8 °F 20.5 °F 19.4 °F 80% 29.93 in 9.0 mi SW 3.5 mph - 0.00 in   Overcast
5:53 AM 25.0 °F 20.7 °F 19.0 °F 78% 29.97 in 10.0 mi SW 3.5 mph - 0.00 in   Overcast
6:53 AM 24.1 °F 19.7 °F 19.9 °F 84% 29.96 in 4.0 mi SSE 3.5 mph - 0.01 in Rain Light Freezing Rain
7:14 AM 24.1 °F 19.7 °F 19.9 °F 84% 29.91 in 8.0 mi SW 3.5 mph - 0.01 in Rain Light Freezing Rain
7:21 AM 25.0 °F - 19.9 °F 81% 29.91 in 9.0 mi Calm Calm - 0.01 in   Overcast
7:53 AM 25.0 °F 20.7 °F 19.9 °F 81% 29.95 in 10.0 mi SW 3.5 mph - 0.01 in   Overcast
8:36 AM 25.0 °F 20.7 °F 19.9 °F 81% 29.91 in 10.0 mi West 3.5 mph - N/A   Overcast
8:53 AM 25.0 °F 20.7 °F 21.0 °F 85% 29.96 in 9.0 mi West 3.5 mph - 0.00 in   Overcast
9:53 AM 26.1 °F - 23.0 °F 88% 29.94 in 5.0 mi Calm Calm - 0.01 in   Overcast
10:11 AM 27.0 °F - 21.9 °F 81% 29.88 in 4.0 mi Calm Calm - 0.01 in   Overcast
10:39 AM 26.1 °F - 21.9 °F 84% 29.87 in 4.0 mi Calm Calm - 0.02 in Rain Light Freezing Rain
10:51 AM 26.6 °F 22.6 °F 21.2 °F 80% 29.88 in 5.0 mi West 3.5 mph - 0.02 in Rain Light Freezing Rain
10:53 AM 26.1 °F - 21.9 °F 84% 29.92 in 5.0 mi Calm Calm - 0.02 in Rain Light Freezing Rain
11:53 AM 27.0 °F - 24.1 °F 89% 29.92 in 2.5 mi Calm Calm - 0.03 in   Overcast
12:14 PM 27.0 °F 23.0 °F 24.1 °F 89% 29.87 in 1.5 mi West 3.5 mph - 0.01 in   Overcast
12:21 PM 27.0 °F 21.6 °F 24.1 °F 89% 29.86 in 2.0 mi West 4.6 mph - 0.01 in Rain Light Freezing Rain
12:37 PM 27.0 °F 20.5 °F 25.0 °F 92% 29.86 in 1.2 mi WSW 5.8 mph - 0.02 in Rain Light Freezing Rain
12:45 PM 27.0 °F 19.5 °F 24.1 °F 89% 29.85 in 0.8 mi WSW 6.9 mph - 0.03 in   Overcast
12:53 PM 27.0 °F 20.5 °F 24.1 °F 89% 29.90 in 1.0 mi West 5.8 mph - 0.03 in   Overcast
1:16 PM 27.0 °F 20.5 °F 24.1 °F 89% 29.84 in 3.0 mi West 5.8 mph - 0.01 in   Overcast
1:39 PM 27.0 °F 19.5 °F 24.1 °F 89% 29.83 in 5.0 mi WSW 6.9 mph - 0.01 in Rain Light Freezing Rain
1:53 PM 27.0 °F 20.5 °F 25.0 °F 92% 29.88 in 4.0 mi West 5.8 mph - 0.01 in Rain Light Freezing Rain
2:51 PM 28.4 °F 22.2 °F 24.8 °F 86% 29.83 in 1.8 mi SSW 5.8 mph - 0.03 in Rain Light Freezing Rain
2:53 PM 28.0 °F 22.8 °F 25.0 °F 88% 29.87 in 1.5 mi SSW 4.6 mph - 0.03 in Rain Light Freezing Rain
3:04 PM 28.0 °F 21.7 °F 25.0 °F 88% 29.83 in 2.0 mi SW 5.8 mph - 0.01 in   Overcast
3:13 PM 28.0 °F 20.8 °F 25.0 °F 88% 29.83 in 6.0 mi SW 6.9 mph - 0.01 in   Overcast
3:29 PM 28.0 °F 19.3 °F 26.1 °F 92% 29.84 in 2.5 mi SW 9.2 mph - 0.02 in Rain Light Freezing Rain
3:44 PM 28.0 °F 20.0 °F 27.0 °F 96% 29.83 in 1.0 mi SSW 8.1 mph - 0.03 in Rain Light Freezing Rain
3:48 PM 28.4 °F 19.7 °F 26.6 °F 93% 29.84 in 0.8 mi SW 9.2 mph - 0.03 in Rain Light Freezing Rain
3:53 PM 28.0 °F 19.3 °F 26.1 °F 92% 29.88 in 0.8 mi SSW 9.2 mph - 0.03 in Rain Light Freezing Rain
4:00 PM 28.0 °F 20.0 °F 26.1 °F 92% 29.84 in 1.0 mi SW 8.1 mph - 0.01 in Snow Light Snow
4:23 PM 28.0 °F 20.0 °F 26.1 °F 92% 29.84 in 2.0 mi SW 8.1 mph - 0.01 in   Overcast
4:41 PM 28.0 °F 21.7 °F 25.0 °F 88% 29.82 in 5.0 mi WSW 5.8 mph - 0.01 in   Overcast
4:53 PM 28.0 °F 20.8 °F 25.0 °F 88% 29.88 in 6.0 mi WSW 6.9 mph - 0.01 in   Overcast
5:53 PM 27.0 °F 21.6 °F 25.0 °F 92% 29.88 in 7.0 mi WSW 4.6 mph - 0.00 in   Overcast
6:53 PM 27.0 °F 23.0 °F 24.1 °F 89% 29.88 in 6.0 mi WNW 3.5 mph - N/A   Overcast
7:12 PM 27.0 °F - 25.0 °F 92% 29.83 in 5.0 mi Calm Calm - 0.01 in Rain Light Freezing Rain
7:34 PM 27.0 °F 23.0 °F 25.0 °F 92% 29.83 in 6.0 mi SW 3.5 mph - 0.01 in   Overcast
7:53 PM 27.0 °F 23.0 °F 25.0 °F 92% 29.88 in 7.0 mi Variable 3.5 mph - 0.01 in   Overcast
8:31 PM 27.0 °F 21.6 °F 26.1 °F 96% 29.83 in 4.0 mi SSW 4.6 mph - N/A   Overcast
8:53 PM 27.0 °F 20.5 °F 25.0 °F 92% 29.88 in 4.0 mi WNW 5.8 mph - N/A   Overcast
9:53 PM 28.0 °F - 26.1 °F 92% 29.88 in 3.0 mi Calm Calm - N/A   Overcast
10:50 PM 28.4 °F 24.6 °F 26.6 °F 93% 29.83 in 5.0 mi ESE 3.5 mph - N/A   Partly Cloudy
10:53 PM 28.0 °F 20.8 °F 25.0 °F 88% 29.86 in 5.0 mi Variable 6.9 mph - N/A   Partly Cloudy
11:53 PM 30.0 °F 26.5 °F 27.0 °F 88% 29.86 in 6.0 mi East 3.5 mph - N/A   Overcast